Regional Weather Roundup
Issued by NWS

Home | Current Version | Previous Version | Graphics & Text | Print | Product List | Glossary On
Versions: 1 2 3 4 5 6 7 8 9 10 11 12 13 14 15 16 17 18 19 20 21 22 23 24 25 26 27 28 29 30 31 32 33 34 35 36 37 38 39 40 41 42 43 44 45 46 47 48 49 50
000
ASUS45 KBOI 310710
RWRID

IDAHO REGIONAL WEATHER ROUNDUP
NATIONAL WEATHER SERVICE BOISE ID
100 AM MDT MON AUG 31 2015

NOTE: "FAIR" INDICATES FEW OR NO CLOUDS BELOW 12000 FEET
WITH NO SIGNIFICANT WEATHER AND/OR OBSTRUCTIONS TO VISIBILITY

IDZ012-014-310800-
SOUTHWEST IDAHO


CITY           SKY/WX    TMP DP  RH WIND       PRES   REMARKS
BOISE          CLEAR     63  43  48 W8        30.02R
CALDWELL       CLEAR     61  37  41 W9        30.05R
MOUNTAIN HOME  CLEAR     59  42  54 NW9       30.02R
$$

IDZ016-017-310800-
SOUTHCENTRAL IDAHO


CITY           SKY/WX    TMP DP  RH WIND       PRES   REMARKS
BURLEY         CLEAR     51  38  60 CALM      30.04R
JEROME         CLEAR     56  34  43 SE9       30.06R
TWIN FALLS     CLEAR     62  28  27 S13       30.06R
$$

IDZ019>023-310800-
SOUTHEAST IDAHO


CITY           SKY/WX    TMP DP  RH WIND       PRES   REMARKS
IDAHO FALLS    CLEAR     52  35  52 SW8       30.05R
POCATELLO      CLEAR     56  32  40 SW9       30.06R
REXBURG        CLEAR     57  29  34 S7        30.04R
$$

IDZ006-010-011-018-031-032-310800-
CENTRAL IDAHO MOUNTAINS


CITY           SKY/WX    TMP DP  RH WIND       PRES   REMARKS
MCCALL         PTCLDY    43  37  79 CALM      30.10R
HAILEY         CLEAR     52  32  46 NW9       30.11R
STANLEY          N/A     42  29  59 SE6       30.17R
SALMON         PTCLDY    57  37  47 CALM      30.06R
CHALLIS        PTCLDY    54  32  43 CALM      30.08R
$$

IDZ002-004-006-007-026-310800-
NORTHERN IDAHO


CITY           SKY/WX    TMP DP  RH WIND       PRES   REMARKS
LEWISTON       CLOUDY    60  51  72 CALM      30.01S
LOWELL           N/A     55  53  93 SW3       30.09S
COEUR D`ALENE  CLEAR     52   0  11 SW6       29.99S
MULLAN PASS    MOCLDY    41  39  93 W8        30.07R
$$


USA.gov is the U.S. government's official web portal to all federal, state and local government web resources and services.